GW7151 Weather Reports


time (UTC)temp
C
wind
direction
speed
KPH
gust
KPH
rain 1hr
cm
rain 24hr
cm
rain mn
cm
humidity
%
barometer
mb
20260510190606 27 99 0.0 0.0 0.00 0.00 0.00 53 1011.2
20260510190103 26 187 1.6 1.6 0.00 0.00 0.00 57 1011.3
20260510185559 26 152 3.2 3.2 0.00 0.00 0.00 62 1011.1
20260510185057 26 138 1.6 1.6 0.00 0.00 0.00 57 1011.2
20260510184554 25 103 1.6 1.6 0.00 0.00 0.00 58 1011.1
20260510184049 25 145 1.6 3.2 0.00 0.00 0.00 64 1011.4
20260510183545 25 152 1.6 3.2 0.00 0.00 0.00 64 1011.4
20260510183041 26 157 1.6 1.6 0.00 0.00 0.00 59 1011.4
20260510182538 27 317 3.2 3.2 0.00 0.00 0.00 60 1011.7
20260510182033 27 141 0.0 1.6 0.00 0.00 0.00 58 1011.2
20260510181531 26 96 1.6 1.6 0.00 0.00 0.00 60 1011.5
20260510181026 26 144 3.2 3.2 0.00 0.00 0.00 60 1011.4
20260510180524 26 144 3.2 3.2 0.00 0.00 0.00 63 1011.7
20260510180022 26 336 4.8 4.8 0.00 0.00 0.00 60 1011.6
20260510175522 25 125 1.6 1.6 0.00 0.00 0.00 63 1011.7
20260510175019 24 74 0.0 1.6 0.00 0.00 0.00 65 1011.9
20260510174516 25 30 3.2 3.2 0.00 0.00 0.00 64 1011.8
20260510174014 25 141 0.0 1.6 0.00 0.00 0.00 65 1012.1
20260510173508 25 173 4.8 8.0 0.00 0.00 0.00 65 1011.9
20260510173006 24 131 0.0 0.0 0.00 0.00 0.00 70 1012.0
20260510172501 24 120 0.0 0.0 0.00 0.00 0.00 68 1012.0
20260510171958 23 50 1.6 1.6 0.00 0.00 0.00 69 1012.1
20260510171455 24 105 0.0 1.6 0.00 0.00 0.00 69 1012.3
20260510170951 25 143 1.6 3.2 0.00 0.00 0.00 63 1012.3
20260510170448 24 130 1.6 3.2 0.00 0.00 0.00 68 1012.2
20260510165944 23 79 0.0 0.0 0.00 0.00 0.00 68 1012.6
20260510165440 25 1 6.4 9.7 0.00 0.00 0.00 66 1012.7
20260510164937 25 112 1.6 1.6 0.00 0.00 0.00 68 1012.6
20260510164434 24 189 1.6 3.2 0.00 0.00 0.00 68 1012.6
20260510163934 23 114 1.6 1.6 0.00 0.00 0.00 74 1012.4
20260510163430 23 138 1.6 3.2 0.00 0.00 0.00 71 1012.5
20260510162925 23 150 1.6 1.6 0.00 0.00 0.00 70 1012.6
20260510162423 23 158 3.2 3.2 0.00 0.00 0.00 76 1012.5
20260510161919 23 122 3.2 3.2 0.00 0.00 0.00 74 1012.8
20260510161414 22 122 1.6 1.6 0.00 0.00 0.00 73 1012.8
20260510160912 23 119 1.6 1.6 0.00 0.00 0.00 75 1012.5
20260510160409 23 116 0.0 0.0 0.00 0.00 0.00 75 1012.6
20260510155907 23 124 3.2 3.2 0.00 0.00 0.00 74 1012.6
20260510155405 22 178 3.2 3.2 0.00 0.00 0.00 78 1012.5
20260510154901 22 114 1.6 3.2 0.00 0.00 0.00 79 1012.5
20260510154358 22 106 0.0 0.0 0.00 0.00 0.00 80 1012.5
20260510153851 22 144 4.8 4.8 0.00 0.00 0.00 80 1012.5
20260510153347 22 195 1.6 3.2 0.00 0.00 0.00 80 1012.5
20260510152844 22 64 1.6 1.6 0.00 0.00 0.00 83 1012.6
20260510152342 21 62 1.6 1.6 0.00 0.00 0.00 86 1012.6
20260510151837 20 44 3.2 3.2 0.00 0.00 0.00 87 1012.6
20260510151336 20 60 0.0 0.0 0.00 0.00 0.00 91 1012.4
20260510150831 20 60 1.6 1.6 0.00 0.00 0.00 91 1012.7
20260510150327 20 60 1.6 1.6 0.00 0.00 0.00 94 1012.7
20260510145823 20 72 0.0 0.0 0.00 0.00 0.00 97 1012.6
20260510145320 19 62 0.0 1.6 0.00 0.00 0.00 98 1012.5
20260510144817 19 33 3.2 3.2 0.00 0.00 0.00 99 1012.6
20260510144314 18 52 1.6 1.6 0.00 0.00 0.00 99 1012.6
20260510143813 18 53 0.0 0.0 0.00 0.00 0.00 99 1012.6
20260510143309 18 60 0.0 1.6 0.00 0.00 0.00 99 1012.5
20260510142806 18 60 0.0 0.0 0.00 0.00 0.00 99 1012.6
20260510142306 18 67 0.0 1.6 0.00 0.00 0.00 99 1012.6
20260510141800 18 67 1.6 1.6 0.00 0.00 0.00 99 1012.6
20260510141257 18 68 0.0 0.0 0.00 0.00 0.00 99 1012.7
20260510140755 18 68 0.0 0.0 0.00 0.00 0.00 99 1012.7
20260510140250 18 67 0.0 0.0 0.00 0.00 0.00 99 1012.5
20260510135750 18 67 1.6 1.6 0.00 0.00 0.00 99 1012.6
20260510135245 18 68 0.0 0.0 0.00 0.00 0.00 99 1012.7
20260510134743 18 67 0.0 0.0 0.00 0.00 0.00 99 1012.4
20260510134240 18 67 0.0 0.0 0.00 0.00 0.00 99 1012.4
20260510133736 18 67 1.6 1.6 0.00 0.00 0.00 99 1012.5
20260510133232 18 68 0.0 0.0 0.00 0.00 0.00 99 1012.3
20260510132728 18 68 0.0 1.6 0.00 0.00 0.00 99 1012.5
20260510132226 18 68 0.0 0.0 0.00 0.00 0.00 99 1012.3
20260510131722 18 68 0.0 0.0 0.00 0.00 0.00 99 1012.2
20260510131221 17 67 1.6 1.6 0.00 0.00 0.00 99 1012.4
20260510130717 17 68 0.0 0.0 0.00 0.00 0.00 99 1012.2
20260510130214 17 68 0.0 0.0 0.00 0.00 0.00 99 1012.2
20260510125710 17 68 0.0 0.0 0.00 0.00 0.00 99 1012.4
20260510125206 17 68 0.0 0.0 0.00 0.00 0.00 99 1012.1
20260510124703 17 68 0.0 0.0 0.00 0.00 0.00 99 1012.1
20260510124201 17 68 0.0 0.0 0.00 0.00 0.00 99 1012.0
20260510123655 17 68 0.0 0.0 0.00 0.00 0.00 99 1012.1
20260510123152 17 67 0.0 0.0 0.00 0.00 0.00 99 1012.1
20260510122648 17 67 0.0 0.0 0.00 0.00 0.00 99 1012.0
20260510122144 17 67 0.0 1.6 0.00 0.00 0.00 99 1011.9
20260510121641 17 67 0.0 0.0 0.00 0.00 0.00 99 1011.8
20260510121138 17 67 0.0 0.0 0.00 0.00 0.00 99 1011.7
20260510120636 17 68 0.0 0.0 0.00 0.00 0.00 99 1011.8
20260510120131 17 68 0.0 0.0 0.00 0.00 0.00 99 1011.2
20260510115628 17 68 0.0 1.6 0.00 0.00 0.00 99 1011.4
20260510115126 17 72 0.0 0.0 0.00 0.00 0.00 99 1011.1
20260510114621 17 72 1.6 1.6 0.00 0.00 0.00 99 1011.1
20260510114118 17 72 0.0 0.0 0.00 0.00 0.00 99 1011.4
20260510113613 17 72 0.0 0.0 0.00 0.00 0.00 99 1011.1
20260510113111 17 71 1.6 1.6 0.00 0.00 0.00 99 1011.1
20260510112607 17 90 0.0 0.0 0.00 0.00 0.00 99 1010.8
20260510112103 17 90 0.0 0.0 0.00 0.00 0.00 99 1010.7
20260510111600 17 90 0.0 0.0 0.00 0.00 0.00 99 1010.7
20260510111056 17 90 0.0 0.0 0.00 0.00 0.00 99 1010.8
20260510110552 17 90 0.0 0.0 0.00 0.00 0.00 99 1010.3
20260510110049 17 90 0.0 0.0 0.00 0.00 0.00 99 1010.1
20260510105544 17 91 0.0 0.0 0.00 0.00 0.00 99 1010.1
20260510105039 17 91 0.0 1.6 0.00 0.00 0.00 99 1009.9
20260510104536 17 92 0.0 0.0 0.00 0.00 0.00 99 1010.1
20260510104032 17 92 0.0 0.0 0.00 0.00 0.00 99 1010.0
20260510103530 17 92 0.0 0.0 0.00 0.00 0.00 99 1009.9
20260510103026 17 92 0.0 0.0 0.00 0.00 0.00 99 1009.7
20260510102522 17 92 0.0 1.6 0.00 0.00 0.00 99 1009.6
20260510102018 17 92 0.0 0.0 0.00 0.00 0.00 99 1009.7
20260510101516 17 92 0.0 0.0 0.00 0.00 0.00 99 1009.4
20260510101014 17 64 1.6 1.6 0.00 0.00 0.00 99 1009.7
20260510100510 17 64 0.0 1.6 0.00 0.00 0.00 99 1009.4
20260510100007 17 64 0.0 1.6 0.00 0.00 0.00 99 1009.4
20260510095502 17 64 0.0 0.0 0.00 0.00 0.00 99 1009.4
20260510095002 17 64 0.0 0.0 0.00 0.00 0.00 99 1009.3
20260510094457 17 64 0.0 1.6 0.00 0.00 0.00 99 1009.3
20260510093953 17 64 0.0 0.0 0.00 0.00 0.00 99 1009.2
20260510093449 17 64 0.0 1.6 0.00 0.00 0.00 99 1009.2
20260510092945 17 64 0.0 0.0 0.00 0.00 0.00 99 1009.2
20260510092443 17 64 0.0 0.0 0.00 0.00 0.00 99 1009.3
20260510091942 17 64 0.0 0.0 0.00 0.00 0.00 99 1009.0
20260510091439 17 64 0.0 0.0 0.00 0.00 0.00 99 1009.1
20260510090936 17 64 1.6 1.6 0.00 0.00 0.00 99 1009.0
20260510090433 17 64 0.0 1.6 0.00 0.00 0.00 99 1009.1
20260510085928 17 64 0.0 1.6 0.00 0.00 0.00 99 1008.8
20260510085424 17 64 0.0 0.0 0.00 0.00 0.00 99 1008.9
20260510084919 17 64 0.0 0.0 0.00 0.00 0.00 99 1009.0
20260510084417 17 64 0.0 0.0 0.00 0.00 0.00 99 1008.6
20260510083913 17 64 0.0 0.0 0.00 0.00 0.00 99 1008.9
20260510083409 17 64 0.0 0.0 0.00 0.00 0.00 99 1008.5
20260510082905 17 64 0.0 0.0 0.00 0.00 0.00 99 1008.6
20260510082403 17 64 0.0 0.0 0.00 0.00 0.00 99 1008.5
20260510081901 17 64 0.0 0.0 0.00 0.00 0.00 99 1008.4
20260510081358 17 64 0.0 0.0 0.00 0.00 0.00 99 1008.2
20260510080855 17 64 0.0 0.0 0.00 0.00 0.00 99 1008.4
20260510080354 17 64 0.0 0.0 0.00 0.00 0.00 99 1008.3
20260510075851 17 64 0.0 0.0 0.00 0.00 0.00 99 1008.2
20260510075349 17 64 0.0 0.0 0.00 0.00 0.00 99 1008.2
20260510074845 17 64 0.0 0.0 0.00 0.00 0.00 99 1008.2
20260510074342 17 64 0.0 0.0 0.00 0.00 0.00 99 1008.3
20260510073839 17 64 0.0 0.0 0.00 0.00 0.00 99 1008.3
20260510073334 17 64 0.0 0.0 0.00 0.00 0.00 99 1008.0
20260510072830 17 64 0.0 0.0 0.00 0.00 0.00 99 1008.1
20260510072328 17 64 0.0 0.0 0.00 0.00 0.00 98 1008.1
20260510071824 17 64 0.0 1.6 0.00 0.00 0.00 99 1008.0
20260510071320 17 64 0.0 0.0 0.00 0.00 0.00 99 1008.1
20260510070820 17 64 0.0 0.0 0.00 0.00 0.00 98 1008.1
20260510070316 17 64 0.0 0.0 0.00 0.00 0.00 98 1008.1
20260510065816 17 64 0.0 0.0 0.00 0.00 0.00 98 1008.0
20260510065313 17 64 0.0 0.0 0.00 0.00 0.00 98 1008.3
20260510064809 17 64 0.0 0.0 0.00 0.00 0.00 98 1008.3
20260510064308 17 64 0.0 0.0 0.00 0.00 0.00 98 1008.1
20260510063803 17 64 0.0 0.0 0.00 0.00 0.00 98 1008.4
20260510063259 17 64 0.0 0.0 0.00 0.00 0.00 98 1008.4
20260510062756 17 64 0.0 0.0 0.00 0.00 0.00 98 1008.5
20260510062252 17 64 0.0 1.6 0.00 0.00 0.00 98 1008.4
20260510061747 17 64 1.6 1.6 0.00 0.00 0.00 98 1008.5
20260510061245 17 68 0.0 1.6 0.00 0.00 0.00 98 1008.7
20260510060741 17 68 0.0 0.0 0.00 0.00 0.00 98 1008.4
20260510060238 17 68 0.0 0.0 0.00 0.00 0.00 98 1008.5
20260510055734 17 68 0.0 1.6 0.00 0.00 0.00 98 1008.7
20260510055233 17 68 0.0 0.0 0.00 0.00 0.00 98 1008.7
20260510054732 17 68 0.0 0.0 0.00 0.00 0.00 98 1008.5
20260510054229 17 68 0.0 0.0 0.00 0.00 0.00 98 1008.5
20260510053728 17 68 0.0 0.0 0.00 0.00 0.00 98 1008.7
20260510053225 16 68 0.0 0.0 0.00 0.00 0.00 98 1008.8
20260510052720 16 68 0.0 0.0 0.00 0.00 0.00 98 1008.6
20260510052217 16 68 0.0 0.0 0.00 0.00 0.00 98 1008.5
20260510051713 16 68 0.0 0.0 0.00 0.00 0.00 98 1008.6
20260510051209 16 68 0.0 0.0 0.00 0.00 0.00 98 1008.6
20260510050707 16 68 0.0 0.0 0.00 0.00 0.00 98 1008.9
20260510050204 16 68 0.0 0.0 0.00 0.00 0.00 98 1008.8
20260510045700 17 68 0.0 0.0 0.00 0.10 0.10 98 1008.8
20260510045157 17 68 0.0 0.0 0.00 0.10 0.10 98 1008.8
20260510044653 17 68 0.0 0.0 0.00 0.10 0.10 98 1008.8
20260510044151 17 68 0.0 0.0 0.00 0.10 0.10 98 1008.7
20260510043646 17 68 0.0 0.0 0.00 0.10 0.10 98 1008.7
20260510043143 17 68 0.0 0.0 0.00 0.10 0.10 98 1008.6
20260510042641 17 68 0.0 0.0 0.00 0.10 0.10 97 1008.6
20260510042137 17 68 0.0 0.0 0.00 0.10 0.10 97 1008.7
20260510041634 17 68 0.0 0.0 0.00 0.10 0.10 97 1009.0
20260510041131 17 68 0.0 0.0 0.00 0.10 0.10 98 1008.8
20260510040628 17 68 0.0 0.0 0.00 0.10 0.10 98 1009.1
20260510040125 17 68 0.0 0.0 0.00 0.10 0.10 98 1009.0
20260510035620 17 68 0.0 0.0 0.00 0.10 0.10 98 1009.1
20260510035121 17 68 0.0 0.0 0.00 0.10 0.10 97 1009.2
20260510034618 17 68 0.0 0.0 0.00 0.10 0.10 97 1009.1
20260510034115 17 68 0.0 1.6 0.00 0.10 0.10 97 1009.4
20260510033612 17 68 0.0 1.6 0.00 0.10 0.10 97 1009.3
20260510033109 18 68 0.0 0.0 0.00 0.10 0.10 97 1009.6
20260510032605 18 68 0.0 0.0 0.00 0.10 0.10 97 1009.2
20260510032101 18 68 0.0 0.0 0.00 0.10 0.10 97 1009.1
20260510031556 18 68 0.0 0.0 0.00 0.10 0.10 97 1009.1
20260510031053 18 68 0.0 0.0 0.00 0.10 0.10 97 1009.1
20260510030548 18 68 0.0 0.0 0.00 0.10 0.10 97 1009.0
20260510030045 18 68 0.0 1.6 0.00 0.10 0.10 97 1008.9
20260510025542 18 68 0.0 0.0 0.00 0.10 0.10 97 1009.0
20260510025040 18 68 1.6 1.6 0.00 0.10 0.10 97 1009.1
20260510024536 18 69 1.6 1.6 0.00 0.10 0.10 97 1009.0
20260510024032 18 70 0.0 0.0 0.00 0.10 0.10 97 1008.7
20260510023528 18 70 1.6 1.6 0.00 0.10 0.10 96 1008.8
20260510023026 17 70 0.0 1.6 0.00 0.10 0.10 96 1008.9
20260510022526 18 70 0.0 0.0 0.00 0.10 0.10 96 1008.8
20260510022026 18 70 0.0 1.6 0.00 0.10 0.10 96 1008.7
20260510021523 18 70 1.6 1.6 0.00 0.10 0.10 95 1008.7
20260510021020 18 70 0.0 0.0 0.00 0.10 0.10 95 1008.5
20260510020514 18 70 1.6 1.6 0.00 0.10 0.10 95 1008.7
20260510020010 18 70 0.0 0.0 0.00 0.10 0.10 95 1008.2
20260510015506 18 70 0.0 0.0 0.00 0.10 0.10 95 1008.4
20260510015002 18 71 0.0 0.0 0.00 0.10 0.10 95 1008.2
20260510014459 18 132 0.0 0.0 0.00 0.10 0.10 95 1008.2
20260510013956 18 132 0.0 1.6 0.00 0.10 0.10 94 1007.8
20260510013450 18 132 1.6 1.6 0.00 0.10 0.10 94 1007.9
20260510012946 19 132 0.0 0.0 0.00 0.10 0.10 94 1007.7
20260510012441 18 132 0.0 0.0 0.00 0.10 0.10 94 1007.6
20260510011936 18 132 0.0 0.0 0.00 0.10 0.10 94 1007.5
20260510011431 18 132 0.0 0.0 0.00 0.10 0.10 93 1007.3
20260510010928 19 132 0.0 0.0 0.00 0.10 0.10 93 1007.1
20260510010425 19 132 0.0 0.0 0.00 0.10 0.10 93 1007.1
20260510005922 19 132 0.0 0.0 0.00 0.10 0.10 93 1006.8
20260510005418 19 132 0.0 0.0 0.00 0.10 0.10 93 1006.8
20260510004915 19 132 0.0 0.0 0.00 0.10 0.10 93 1006.7
20260510004413 20 132 0.0 0.0 0.00 0.10 0.10 92 1006.9
20260510003910 20 132 0.0 0.0 0.00 0.10 0.10 91 1006.7
20260510003407 20 132 0.0 0.0 0.00 0.10 0.10 91 1006.5
20260510002906 20 132 0.0 0.0 0.00 0.10 0.10 91 1006.5
20260510002404 20 132 0.0 0.0 0.00 0.10 0.10 90 1006.7
20260510001900 20 132 0.0 0.0 0.00 0.10 0.10 91 1006.4
20260510001358 20 132 0.0 0.0 0.00 0.10 0.10 91 1006.2
20260510000854 20 132 0.0 0.0 0.00 0.10 0.10 90 1006.4
20260510000351 20 132 0.0 0.0 0.00 0.10 0.10 89 1006.3
20260509235847 20 132 0.0 0.0 0.00 0.10 0.10 87 1006.3
20260509235344 21 132 0.0 0.0 0.00 0.10 0.10 85 1006.3
20260509234840 21 132 0.0 0.0 0.00 0.10 0.10 86 1006.3
20260509234337 21 132 0.0 0.0 0.00 0.10 0.10 87 1006.2
20260509233836 21 132 0.0 0.0 0.00 0.10 0.10 87 1006.2
20260509233333 21 132 0.0 0.0 0.00 0.10 0.10 86 1006.5
20260509232828 21 132 0.0 0.0 0.00 0.10 0.10 85 1006.7
20260509232327 21 132 0.0 0.0 0.00 0.10 0.10 85 1006.3
20260509231822 21 132 0.0 0.0 0.00 0.10 0.10 84 1006.3
20260509231319 21 132 0.0 0.0 0.00 0.10 0.10 84 1006.4
20260509230817 22 132 0.0 0.0 0.00 0.10 0.10 83 1006.5
20260509230314 22 132 0.0 0.0 0.00 0.10 0.10 82 1006.6
20260509225809 22 132 0.0 0.0 0.00 0.10 0.10 82 1006.4
20260509225306 22 132 0.0 0.0 0.00 0.10 0.10 81 1006.5
20260509224802 22 132 0.0 0.0 0.00 0.10 0.10 79 1006.4
20260509224258 22 132 0.0 1.6 0.00 0.10 0.10 79 1006.4
20260509223755 22 132 0.0 1.6 0.00 0.10 0.10 80 1006.3
20260509223252 22 132 0.0 0.0 0.00 0.10 0.10 80 1006.2
20260509222749 22 132 0.0 1.6 0.00 0.10 0.10 79 1006.3
20260509222244 22 132 0.0 1.6 0.00 0.10 0.10 79 1006.2
20260509221740 22 132 0.0 1.6 0.00 0.10 0.10 78 1006.1
20260509221237 22 133 0.0 0.0 0.00 0.10 0.10 76 1006.2
20260509220732 22 133 0.0 0.0 0.00 0.10 0.10 77 1005.9
20260509220229 22 133 0.0 0.0 0.00 0.10 0.10 74 1006.1
20260509215725 22 133 0.0 0.0 0.00 0.10 0.10 74 1005.9
20260509215221 22 133 0.0 0.0 0.00 0.10 0.10 77 1006.1
20260509214719 22 135 0.0 0.0 0.00 0.10 0.10 76 1006.0
20260509214216 23 137 1.6 1.6 0.00 0.10 0.10 73 1006.1
20260509213713 23 71 0.0 0.0 0.00 0.10 0.10 71 1005.6
20260509213208 23 70 1.6 1.6 0.00 0.10 0.10 74 1005.6
20260509212706 23 63 0.0 0.0 0.00 0.10 0.10 72 1005.5
20260509212203 22 61 1.6 1.6 0.00 0.10 0.10 71 1005.6
20260509211659 22 62 1.6 3.2 0.00 0.10 0.10 73 1005.4
20260509211155 22 59 1.6 1.6 0.00 0.10 0.10 73 1005.6
20260509210652 22 130 1.6 1.6 0.00 0.10 0.10 73 1005.4
20260509210149 22 117 0.0 0.0 0.00 0.10 0.10 73 1005.4
20260509205644 22 130 1.6 1.6 0.00 0.10 0.10 73 1005.3
20260509205144 23 130 1.6 1.6 0.00 0.10 0.10 72 1005.5
20260509204640 22 111 1.6 1.6 0.00 0.10 0.10 73 1005.5
20260509204137 22 110 0.0 1.6 0.00 0.10 0.10 73 1005.8
20260509203633 22 111 3.2 3.2 0.00 0.10 0.10 73 1005.8
20260509203131 23 90 0.0 0.0 0.00 0.10 0.10 71 1005.9
20260509202631 23 82 0.0 0.0 0.00 0.10 0.10 74 1006.0
20260509202126 22 81 0.0 0.0 0.00 0.10 0.10 75 1005.9
20260509201621 22 108 1.6 1.6 0.00 0.10 0.10 75 1006.0
20260509201120 22 129 0.0 0.0 0.00 0.10 0.10 76 1006.0
20260509200615 22 123 4.8 4.8 0.00 0.10 0.10 77 1006.1
20260509200111 22 128 1.6 1.6 0.00 0.10 0.10 79 1006.2
20260509195607 22 126 3.2 3.2 0.00 0.10 0.10 77 1006.4
20260509195101 22 138 4.8 4.8 0.00 0.10 0.10 76 1006.3
20260509194601 22 112 1.6 1.6 0.00 0.10 0.10 76 1006.2
20260509194059 22 132 1.6 1.6 0.00 0.10 0.10 74 1006.2
20260509193554 22 61 3.2 3.2 0.00 0.10 0.10 74 1006.4
20260509193051 22 136 3.2 3.2 0.00 0.10 0.10 74 1006.6
20260509192547 22 113 0.0 0.0 0.00 0.10 0.10 74 1006.4
20260509192043 22 113 0.0 1.6 0.00 0.10 0.10 74 1006.7
20260509191542 22 63 0.0 0.0 0.00 0.10 0.10 75 1006.5
20260509191039 22 61 1.6 1.6 0.00 0.10 0.10 74 1006.6